SCP
0 0 0 0 0 0 0 0 1 1 1 0 1 1 1 1 2 3 4 4 4 4 3 3 3 4 5 5 5 5 4 3 2 2 1 1 1 1 1 1 0 0 0 0
0 0 0 0 0 0 0 1 1 1 1 1 1 1 1 1 2 2 4 5 5 4 3 3 4 4 4 4 4 4 3 3 2 2 1 1 1 1 1 1 1 0 0 0
0 0 0 0 0 0 0 1 1 1 1 1 1 1 1 1 1 2 4 5 6 4 3 4 4 5 4 4 3 3 3 2 2 2 1 1 1 1 1 1 1 1 0 0
0 0 0 0 0 0 0 1 1 1 1 0 0 0 1 1 1 2 4 5 6 4 3 4 5 5 4 4 3 3 2 2 2 2 2 2 1 1 1 1 1 1 0 0
0 0 0 0 0 0 0 1 1 0 0 0 0 0 1 1 2 2 4 5 5 4 4 4 5 5 5 4 3 3 3 2 3 3 3 2 2 1 1 1 1 1 1 1
0 0 0 0 0 0 1 1 1 0 0 0 0 0 0 1 1 2 3 4 5 4 4 4 4 5 5 4 3 3 3 3 3 4 4 3 2 1 1 1 1 1 1 1
0 0 0 0 0 0 1 1 1 0 0 0 0 0 0 1 1 2 3 4 4 5 4 4 4 5 4 3 3 3 3 3 3 4 4 3 2 1 1 1 1 1 1 1
0 0 0 0 0 0 0 0 0 0 0 0 0 0 1 2 2 2 3 4 4 5 5 4 5 5 4 3 3 3 3 3 3 4 4 3 2 1 1 1 1 1 1 1
0 0 0 0 0 0 0 0 0 0 0 0 0 1 1 2 3 3 4 5 6 6 5 5 5 5 4 3 3 3 3 3 4 4 4 3 2 2 1 1 1 1 1 1
0 0 0 0 0 0 0 0 0 0 0 0 0 1 1 2 3 4 5 8 9 8 6 4 4 4 3 3 3 4 3 4 4 5 5 4 2 2 1 1 1 1 1 1
0 0 0 0 0 0 0 0 0 0 0 0 0 0 1 2 3 5 8 11 10 8 6 5 4 4 4 4 4 4 4 4 5 5 5 4 2 1 1 1 1 1 1 1
0 0 0 0 0 0 0 0 0 0 0 0 0 0 0 1 3 6 8 9 7 7 6 6 5 5 5 6 5 5 4 5 5 5 4 3 2 1 1 1 1 2 1 1
0 0 0 0 0 0 0 0 0 0 0 0 0 0 1 2 3 5 6 5 5 7 7 7 6 7 7 7 6 5 5 5 5 5 4 3 2 2 2 2 2 2 2 2
0 0 0 0 0 0 0 0 0 0 0 0 0 0 1 2 3 4 5 6 8 9 8 7 7 7 8 7 6 5 5 5 6 5 5 4 3 3 3 3 3 2 2 2
0 0 0 0 0 0 0 0 0 1 1 1 1 1 2 3 4 4 6 11 14 15 11 8 7 8 8 6 5 5 5 6 6 6 6 5 5 4 4 4 3 2 2 2
0 0 0 0 0 0 0 1 1 1 2 2 2 2 3 3 5 7 10 14 17 17 14 10 9 8 7 6 5 5 5 6 6 6 7 7 7 5 5 4 2 1 1 1
0 0 0 0 0 0 0 1 1 1 2 3 3 3 4 5 8 11 12 13 14 13 11 10 10 8 7 7 6 6 5 5 5 5 7 8 7 5 4 3 2 1 1 2
0 0 0 0 0 0 1 1 2 2 2 3 3 4 6 9 12 14 14 12 9 8 7 8 9 8 8 8 7 7 6 5 5 5 5 5 5 3 3 2 2 1 1 1
0 0 0 0 0 0 1 2 3 3 3 4 4 6 9 13 16 15 12 10 8 6 7 7 8 9 9 9 9 8 8 6 5 4 3 3 3 3 2 2 2 2 1 1
0 0 0 0 0 1 2 3 3 3 4 5 6 6 9 13 15 12 10 9 7 7 8 9 9 9 10 9 9 9 8 7 6 5 4 3 3 3 3 2 2 2 2 2
0 0 0 0 1 1 2 4 3 3 5 6 7 7 8 11 13 12 12 11 10 9 10 11 11 11 11 10 9 8 7 7 6 5 4 4 3 3 3 3 2 2 2 2
1 1 1 1 1 2 3 4 4 3 5 7 8 8 9 13 16 17 16 15 13 12 12 12 12 12 11 10 8 7 7 6 6 6 5 4 4 4 3 3 3 2 2 2
1 2 2 2 3 3 4 4 4 4 5 7 10 10 11 15 19 21 21 19 16 14 12 11 10 10 10 9 8 7 7 6 6 5 5 5 4 4 4 4 3 2 2 2
2 3 4 4 4 4 4 4 4 4 5 7 9 10 12 14 17 20 21 19 16 13 11 9 8 8 7 6 6 6 6 6 5 5 4 4 4 5 5 4 2 1 1 1
3 4 4 5 5 5 6 5 4 4 5 6 8 10 12 14 16 18 19 17 15 13 10 9 8 7 5 5 4 4 4 4 4 4 3 3 4 4 4 3 1 1 0 0
3 4 4 4 5 7 8 7 5 4 4 6 8 11 14 17 18 17 16 14 13 12 11 9 8 7 5 5 4 4 4 4 3 3 3 3 3 3 2 2 1 0 0 0
Wind_Speed
3 3 3 6 6 6 5 4 3 4 5 5 6 7 10 9 10 12 11 11 11 11 9 9 9 9 8 7 6 6 5 4 3 2 2 1 1 1 1 2 2 2 2 2
4 5 10 6 3 3 4 4 2 1 4 5 6 5 8 10 13 14 15 14 12 9 8 9 8 8 8 7 7 6 6 5 4 3 2 2 2 1 1 1 1 2 2 2
5 9 6 3 2 1 1 5 5 4 2 4 6 1 3 6 5 7 11 12 12 14 13 11 10 9 8 8 7 7 5 5 4 3 2 1 2 1 1 0 0 1 2 2
6 8 4 3 4 4 3 6 6 5 5 1 4 2 6 6 5 7 10 10 12 12 12 11 11 10 10 9 7 6 6 5 4 3 3 3 2 2 2 2 1 1 1 1
6 4 3 4 6 5 6 5 4 5 5 2 1 4 6 4 7 10 11 12 12 13 13 13 12 11 10 9 8 6 5 4 3 3 4 3 2 2 1 1 1 0 0 0
7 5 4 6 4 3 3 4 6 5 5 1 4 4 5 7 13 11 11 13 13 13 12 11 10 9 8 8 7 6 5 4 3 3 3 4 4 3 2 1 1 0 1 1
6 6 4 2 1 2 6 7 5 5 4 4 4 2 8 10 10 12 13 13 13 13 13 11 11 10 9 9 8 7 6 4 3 3 3 3 3 3 3 2 2 1 0 1
3 7 6 3 6 5 4 11 9 5 4 5 3 4 8 6 6 8 11 11 11 12 12 12 12 11 11 10 9 8 7 5 4 4 3 3 3 2 2 2 2 2 1 1
6 7 6 4 5 7 4 4 9 8 3 0 4 4 6 4 6 7 9 10 11 11 12 12 11 11 10 10 10 9 8 6 5 4 3 2 2 2 2 1 1 1 1 1
7 5 6 5 1 2 7 7 7 6 5 2 3 3 4 3 6 7 9 10 10 9 9 10 10 10 9 9 9 8 8 7 5 5 4 3 2 2 2 2 2 2 2 2
6 4 5 2 3 5 2 3 6 5 7 7 3 7 8 11 10 10 11 12 13 12 12 11 10 10 9 8 9 8 8 6 5 5 4 3 3 2 3 3 3 3 3 3
3 6 3 6 6 6 6 7 8 6 4 5 5 9 6 10 10 10 10 10 11 11 11 11 11 10 9 9 9 9 8 7 6 6 5 4 4 3 3 3 3 4 4 3
3 6 1 7 7 3 1 3 5 6 6 5 5 7 4 4 7 9 10 10 10 10 10 10 11 11 10 10 9 9 9 8 7 7 6 5 4 4 4 4 4 4 4 4
6 5 7 8 8 3 2 3 2 6 5 5 7 7 3 4 8 8 8 10 10 10 11 11 11 10 10 10 10 9 8 8 8 7 7 6 5 4 4 4 4 5 5 5
6 3 2 4 4 1 2 4 3 3 7 8 8 8 9 10 11 11 10 10 10 10 11 12 12 11 10 10 9 9 8 8 8 8 7 6 5 5 4 5 5 5 5 6
5 3 2 3 2 2 3 5 4 3 4 4 5 5 7 7 6 8 10 12 11 11 11 11 11 11 11 11 10 10 9 9 9 8 7 6 6 6 5 5 5 5 5 5
3 4 3 2 4 3 4 5 3 2 3 5 6 7 4 6 8 11 11 11 12 12 11 11 11 11 11 11 11 11 10 9 9 8 7 7 7 7 6 6 6 6 5 5
4 3 3 1 2 4 9 4 1 1 1 2 3 4 6 8 9 8 8 10 10 10 11 11 10 9 8 9 9 9 9 9 9 8 8 7 7 7 6 6 6 5 4 4
6 7 3 3 2 5 6 3 1 1 3 2 3 4 4 6 7 2 3 7 9 10 9 9 9 10 9 11 11 11 9 9 9 8 8 8 8 8 7 6 6 5 5 4
4 6 5 3 3 6 6 6 3 4 2 5 1 4 5 6 5 4 4 4 6 6 7 7 8 8 10 11 12 12 11 10 10 9 9 8 8 8 7 6 5 4 5 4
3 3 4 4 4 6 5 7 3 3 6 5 0 3 4 4 6 5 4 4 6 6 7 8 9 9 10 11 12 12 11 10 9 9 8 8 8 7 7 6 5 5 5 5
4 3 3 3 3 6 5 3 2 5 4 2 1 2 3 4 3 5 5 5 6 7 7 8 8 8 8 11 11 10 9 8 8 9 9 8 7 7 6 6 5 5 5 5
3 6 5 6 6 6 3 1 2 3 2 1 1 2 5 5 5 5 6 6 6 7 7 7 8 8 7 9 10 10 8 9 9 9 9 8 7 6 6 7 6 5 4 4
3 1 3 0 2 2 1 1 2 2 1 0 2 3 5 5 5 5 6 6 6 6 6 6 8 8 7 7 8 9 9 10 10 10 8 7 7 6 5 4 5 5 4 4
3 1 2 0 2 3 3 2 2 3 4 4 4 4 4 5 5 5 5 5 6 6 5 6 7 8 8 8 7 8 10 11 10 9 8 7 6 6 5 4 2 3 3 4
2 3 3 4 5 3 3 3 2 3 3 4 6 6 4 4 4 5 5 5 5 6 5 6 7 7 7 7 7 7 9 11 11 9 7 6 6 5 5 5 3 4 2 2
Wind_Direction
332 58 250 235 206 191 182 161 181 198 170 133 144 157 174 180 180 179 179 179 179 180 179 168 161 156 151 151 150 155 154 165 154 141 147 148 170 187 191 200 190 185 181 163
8 273 242 226 217 170 140 129 167 242 153 134 151 171 188 186 188 189 184 183 181 175 166 166 162 158 158 162 164 163 165 168 168 166 169 170 167 179 183 194 189 190 178 173
216 247 252 223 238 178 170 171 186 181 103 82 107 48 216 209 197 192 193 186 180 177 173 172 169 167 164 169 174 169 168 169 172 164 135 106 77 62 62 54 245 231 185 176
250 255 259 226 217 173 241 213 168 157 123 196 133 181 255 212 210 202 198 188 184 180 175 173 172 171 173 176 173 164 165 167 169 154 147 153 160 176 198 193 206 241 198 187
260 254 241 228 224 191 215 200 144 152 133 100 75 140 262 188 207 213 200 192 185 182 178 177 177 176 174 170 168 165 160 161 161 154 159 158 160 179 185 157 155 206 303 248
253 264 215 212 231 190 173 70 46 54 72 65 233 155 248 207 206 203 193 187 182 179 175 176 174 165 163 162 161 161 157 159 154 150 150 155 160 161 149 136 147 210 281 299
301 296 270 214 235 351 98 90 42 9 22 256 258 173 240 230 210 190 182 183 180 174 172 170 165 162 163 162 163 163 157 156 154 150 150 158 163 163 166 170 172 184 222 258
219 276 260 215 182 184 169 135 150 176 201 266 311 235 259 244 203 178 171 170 168 171 172 171 170 168 167 166 164 162 159 158 155 153 152 150 150 152 157 169 170 188 201 223
189 247 273 242 192 156 162 166 161 136 154 138 289 290 317 47 112 142 153 157 168 171 171 169 168 168 166 164 166 164 161 160 161 158 148 141 142 142 139 135 134 144 160 124
175 230 275 274 74 166 164 154 100 112 139 202 285 261 228 198 166 165 162 166 167 163 160 163 165 165 166 165 162 159 160 165 161 156 158 151 141 133 128 114 94 85 74 71
165 179 290 341 183 203 162 124 114 122 148 150 213 263 224 194 180 176 180 172 164 165 166 166 167 162 158 153 153 155 157 155 155 155 146 136 130 124 111 108 104 96 83 73
171 137 234 257 247 193 171 174 145 147 196 156 162 260 259 191 182 176 175 169 165 166 165 165 160 156 157 160 161 159 159 157 159 153 142 136 127 115 106 98 93 96 91 81
127 112 91 333 335 349 146 172 154 136 127 150 160 255 283 181 179 180 166 161 165 164 158 157 155 160 166 168 165 162 160 159 155 147 140 136 131 126 119 111 102 95 95 89
106 111 156 195 217 228 265 269 179 129 149 188 203 218 253 184 176 172 163 166 166 165 162 162 161 165 169 170 166 161 160 158 153 147 143 142 143 140 130 116 110 104 99 94
89 122 181 210 216 215 253 264 242 185 182 182 211 197 209 197 180 171 161 153 153 158 164 168 168 169 169 167 163 160 160 158 153 148 148 150 146 136 123 112 106 100 96 96
62 109 53 333 338 2 302 279 252 221 193 190 178 218 220 188 155 146 152 154 159 165 167 169 167 167 168 169 165 161 162 158 151 151 152 147 137 131 124 114 107 100 94 90
57 86 75 297 321 22 283 255 241 228 210 172 188 219 180 155 170 169 164 162 165 167 167 169 170 170 171 173 166 163 161 153 150 151 149 146 143 140 136 128 115 110 104 99
129 99 121 129 44 230 245 258 160 167 267 184 175 186 170 171 176 172 165 164 166 168 170 171 169 164 164 161 154 150 148 148 149 150 150 150 147 143 136 128 125 120 114 109
146 138 123 121 177 267 292 321 30 109 326 336 147 149 142 125 100 98 184 170 173 175 173 169 166 155 154 154 150 145 143 146 148 152 154 153 147 144 140 136 135 128 121 113
84 113 125 136 166 223 256 293 297 100 323 318 84 152 146 114 127 217 207 167 152 152 158 153 148 141 146 153 149 147 152 155 160 161 157 151 147 147 147 145 139 131 129 126
53 68 137 166 204 249 270 302 25 120 232 284 340 159 159 160 182 189 167 150 140 137 143 145 144 148 153 151 148 153 159 166 164 155 147 145 148 149 147 141 137 138 136 128
158 145 174 154 188 251 305 4 128 206 228 260 108 115 130 145 134 125 132 136 133 129 132 138 139 144 148 147 151 156 165 161 150 146 145 148 149 152 147 139 138 142 143 137
175 179 175 180 208 239 281 192 210 176 165 203 128 126 128 125 122 126 133 146 142 139 137 137 137 138 145 152 156 158 161 148 145 145 149 151 149 143 145 147 151 153 154 153
309 51 110 104 257 268 324 44 32 49 87 58 106 117 106 113 125 130 139 145 138 134 133 134 138 141 149 157 156 158 152 149 147 148 150 150 148 144 144 148 154 158 164 167
272 4 84 177 272 1 355 14 42 34 33 53 58 86 106 113 115 120 128 136 137 132 139 146 152 153 159 158 153 152 150 148 147 149 150 152 151 151 146 134 130 162 180 188
248 171 153 215 228 184 243 292 22 47 44 71 76 68 70 92 105 112 118 121 128 135 139 143 150 152 154 151 152 154 154 154 152 152 155 157 156 152 148 139 110 57 85 148